Location: Home
(42.5358°N, 72.7383°W)
Time: 08:58:20
(UTC-05:00)

Courier 1B - Pass Details

Date: 06 December 2021
Orbit: 962 x 1209 km, 28.3° (Epoch: 21 January)

Event Time Altitude Azimuth Distance (km) Brightness Sun altitude
Rises 14:01:38 0° 209° (SSW) 4,096 12.5 17.4°
Reaches altitude 10° 14:06:10 10° 186° (S) 3,117 11.4 16.9°
Maximum altitude 14:09:51 14° 157° (SSE) 2,793 10.4 16.5°
Drops below altitude 10° 14:13:29 10° 128° (SE) 3,065 10.2 16.1°
Sets 14:17:51 0° 105° (ESE) 3,980 10.5 15.7°
